Temp
12 12 11 12 11 12 11 12 13 14 15 13 14 14 15 16 16 16 16 16 17 16 18 18 19 20 20 20 20 20 19 17 17 16 16 15 16 15 15 16 15 15 14 15
11 11 12 14 13 13 13 12 13 14 14 13 13 13 14 15 15 16 17 17 17 18 17 17 17 18 20 20 19 19 18 17 16 15 15 15 13 13 14 15 14 14 14 15
10 11 11 12 11 12 11 11 13 13 12 13 12 13 16 17 16 16 16 17 17 18 18 18 17 16 19 17 18 18 17 16 15 15 15 14 12 12 12 13 13 12 13 13
10 12 11 10 11 11 11 11 12 11 11 11 12 12 16 16 17 17 16 16 16 17 17 18 18 16 16 18 17 17 16 15 15 15 15 15 13 12 11 12 12 12 13 12
11 10 10 11 11 10 11 12 11 11 11 11 12 11 14 13 14 15 16 16 15 16 16 17 17 17 17 16 17 16 15 14 14 14 15 13 11 11 11 11 11 10 11 11
10 11 11 10 11 11 12 11 11 11 11 11 13 12 14 16 16 16 16 17 15 16 16 17 17 16 14 15 15 15 14 13 14 14 13 13 12 11 10 10 10 9 10 10
11 11 11 11 11 11 11 10 11 11 11 12 12 11 14 15 15 16 16 16 16 15 16 15 14 13 12 12 13 13 13 12 13 13 13 13 12 13 12 10 10 9 9 9
11 9 11 11 12 11 10 11 12 12 11 12 11 12 14 15 16 16 16 16 16 15 15 14 14 14 13 12 11 12 11 11 12 12 12 12 12 10 9 10 10 10 10 9
10 9 10 10 11 12 10 10 12 11 12 11 13 13 14 15 14 15 15 15 15 14 14 13 13 13 12 11 11 11 11 11 11 12 12 12 11 10 10 10 10 9 9 8
10 9 9 10 11 11 10 11 10 10 11 12 12 11 14 14 15 13 14 15 14 14 13 12 13 13 12 11 10 10 11 10 11 11 12 11 10 10 10 9 9 8 8 7
10 9 9 9 9 11 10 10 10 10 11 12 12 14 13 14 14 13 13 14 13 12 13 13 12 11 10 9 9 9 10 10 10 10 10 10 10 10 9 9 8 8 7 7
10 9 8 9 11 12 12 11 11 11 11 11 11 14 15 13 13 13 13 13 11 10 11 11 10 9 9 9 8 8 8 8 9 9 9 9 9 9 8 8 7 7 7 6
10 9 9 10 10 11 10 10 10 10 10 11 11 13 15 13 14 13 12 13 11 10 9 8 8 9 9 8 8 8 7 7 8 8 9 8 8 8 7 7 6 6 6 5
11 10 10 11 12 11 10 10 10 9 10 12 11 13 14 15 15 15 12 12 11 10 8 8 8 8 7 7 7 7 6 7 7 7 7 7 7 7 7 6 5 5 4 4
10 10 10 10 11 10 9 10 10 10 10 10 13 13 14 14 14 13 12 12 12 10 9 9 7 7 7 6 6 6 5 6 7 7 7 6 6 6 6 5 4 4 4 4
10 10 10 10 11 11 10 11 10 10 10 11 12 12 14 13 13 12 12 11 12 11 10 9 7 7 7 6 6 5 5 5 7 6 6 5 5 5 5 4 4 3 3 3
10 10 10 12 13 12 12 12 11 10 11 11 11 13 14 13 13 13 12 10 12 12 10 8 8 7 6 6 5 5 5 6 6 6 5 5 4 4 4 3 3 3 2 2
11 10 10 11 12 14 14 13 13 12 12 12 12 13 13 13 11 11 12 12 12 11 9 8 8 6 5 5 5 5 5 5 5 4 4 4 4 3 3 3 3 2 2 1
10 11 12 12 13 14 14 12 13 12 12 13 12 13 13 12 12 11 9 10 10 10 9 8 7 6 5 5 4 4 4 5 4 3 4 4 4 3 3 3 2 1 1 1
10 11 11 11 13 13 15 13 13 13 14 14 13 13 13 12 12 12 8 8 9 9 7 6 6 5 4 4 5 4 3 3 3 3 3 3 3 3 3 2 1 1 0 -0
11 11 11 12 13 12 13 12 13 14 15 12 13 13 11 13 11 7 7 6 6 6 6 5 5 5 4 4 5 3 3 2 3 3 3 3 3 2 2 1 1 0 -0 -1
11 11 13 12 12 11 13 14 14 13 11 11 11 12 11 8 7 6 5 5 5 4 4 4 4 3 3 4 5 3 1 2 3 3 3 2 2 1 1 1 -0 -1 -1 -2
11 12 12 12 12 12 12 12 13 10 9 9 8 9 8 7 6 5 4 4 3 3 3 3 3 2 3 4 4 1 1 3 3 2 2 1 1 1 0 -0 -1 -1 -2 -2
11 10 12 13 14 12 11 11 10 7 8 6 6 7 7 5 4 3 3 3 3 2 2 2 2 2 1 2 3 2 2 3 3 1 1 0 0 -0 -1 -1 -2 -2 -3 -3
10 10 12 11 11 11 11 10 9 7 6 5 5 5 5 4 3 3 3 2 2 2 2 2 1 0 -1 1 2 2 3 3 2 1 0 -0 -1 -1 -1 -2 -2 -3 -3 -4
9 11 12 13 13 13 12 9 7 7 6 6 6 5 4 4 3 3 2 2 2 1 1 0 -0 -0 -1 1 1 2 2 3 2 0 -1 -1 -1 -2 -2 -2 -3 -3 -3 -4
Height
784 786 787 785 789 787 790 791 786 781 776 780 770 758 754 750 749 747 744 742 739 739 737 736 735 736 739 740 741 742 744 748 750 754 759 767 772 778 782 787 791 794 799 799
788 786 779 778 783 785 784 785 783 776 777 779 771 747 748 744 736 734 732 732 732 730 731 730 730 730 732 734 736 737 740 744 747 751 754 761 768 777 781 785 790 794 798 798
782 777 777 782 786 785 786 786 781 780 782 778 774 739 725 717 719 721 723 721 721 721 722 723 724 725 725 728 732 732 735 740 744 747 751 759 769 776 782 786 790 795 797 799
783 774 778 786 785 787 786 782 780 784 790 782 776 749 721 717 714 712 716 714 712 712 713 713 714 718 718 720 727 730 733 737 741 745 748 752 760 769 778 782 787 793 796 799
773 774 780 779 777 784 780 777 780 781 784 781 771 779 716 725 721 715 708 704 704 703 704 704 704 707 709 713 719 724 730 735 738 743 747 752 761 767 774 780 786 791 794 798
771 771 772 773 772 773 773 780 779 778 779 766 756 766 709 713 709 706 701 698 698 697 697 696 697 701 704 708 714 721 726 732 737 741 746 750 756 762 772 778 784 790 794 797
766 762 763 766 770 772 773 780 772 769 764 750 747 757 712 708 706 704 699 694 691 690 690 692 695 697 701 703 709 716 722 729 735 740 745 749 755 759 765 772 780 786 791 795
762 769 759 761 759 762 767 769 759 756 755 748 752 733 709 701 694 692 691 690 686 685 685 685 685 689 695 697 702 709 717 725 733 740 744 750 756 762 767 772 779 784 788 792
766 766 762 762 760 760 765 764 755 757 747 747 725 713 704 695 697 696 694 688 683 679 678 679 680 682 689 695 697 702 711 721 730 738 743 750 756 762 768 775 780 783 787 790
760 769 759 757 756 756 756 757 759 760 748 731 717 720 700 695 689 695 691 686 678 675 673 674 677 680 686 693 697 703 710 718 728 736 743 749 757 764 769 775 779 783 787 790
759 766 761 758 755 744 753 751 751 747 739 724 714 695 691 686 689 690 688 681 679 675 670 670 673 678 684 691 698 703 709 717 727 735 742 749 757 764 771 776 780 784 787 790
753 760 762 751 732 731 733 730 734 730 720 724 723 681 682 688 689 686 683 679 678 679 673 673 676 680 684 692 700 705 711 719 728 736 743 750 757 764 771 777 781 785 787 791
750 754 757 740 737 728 731 720 722 725 727 714 718 677 675 681 682 681 682 680 678 683 683 681 682 684 687 693 701 709 714 721 730 739 745 752 758 764 772 777 781 786 788 791
741 746 741 727 716 721 719 716 719 722 714 693 695 682 682 676 676 676 680 680 679 685 688 686 685 688 693 698 703 710 717 723 733 742 749 754 760 766 772 778 782 786 789 791
743 740 736 725 714 716 712 705 708 707 700 704 672 680 678 677 677 680 682 682 677 684 688 688 690 692 695 702 708 714 718 726 736 744 752 758 763 767 773 779 783 787 789 790
737 732 730 713 705 698 697 687 688 697 697 691 684 673 674 673 672 676 679 680 677 678 684 687 691 694 697 703 710 715 721 729 738 746 754 760 764 769 774 779 784 786 788 790
732 733 724 697 690 685 680 674 681 685 685 683 685 670 669 668 670 670 671 680 675 673 679 686 692 695 700 705 709 717 724 732 740 748 756 762 766 770 776 780 784 786 788 789
723 728 725 705 691 672 667 667 664 671 669 672 668 668 668 667 670 670 664 667 668 669 677 684 691 699 704 708 714 720 728 736 742 751 758 763 767 772 777 781 784 786 787 788
720 719 713 700 690 675 664 671 666 670 666 660 663 664 666 670 671 664 667 662 664 669 676 683 691 700 707 711 718 724 732 739 747 754 759 764 768 773 778 781 783 785 786 787
712 712 712 708 694 686 664 667 664 664 659 655 656 657 663 669 670 668 672 669 668 673 679 685 694 702 709 717 720 726 736 745 751 755 760 766 770 774 778 781 783 784 785 787
710 710 709 703 693 684 669 669 664 666 667 661 658 657 665 664 670 681 679 677 677 680 684 690 697 704 712 718 722 732 741 748 753 758 763 768 772 775 779 781 782 784 785 785
703 705 694 697 695 696 667 665 667 665 663 663 664 659 663 673 682 685 686 686 684 688 691 696 701 710 717 721 725 736 745 751 756 761 766 770 773 776 779 781 783 784 784 783
699 691 690 690 683 668 666 665 663 667 668 663 666 665 667 675 682 689 693 693 694 696 700 703 707 714 722 727 730 738 749 754 759 763 767 771 774 777 780 782 783 783 782 781
689 690 688 682 665 667 663 665 666 670 670 669 667 666 668 675 683 689 691 694 695 700 705 710 713 719 726 731 737 744 751 757 761 765 770 773 776 779 781 782 782 782 781 779
689 690 682 681 671 668 662 665 670 672 673 672 671 671 674 678 686 689 693 697 702 708 713 717 720 723 730 738 745 751 756 760 764 768 772 775 778 780 781 781 781 780 779 778
686 677 678 672 663 664 665 667 670 673 676 675 675 677 681 682 687 692 699 705 709 715 720 723 726 731 741 746 752 757 761 764 766 770 774 777 779 780 780 780 779 779 778 776
Wind_Speed
2 5 8 11 6 4 1 3 11 7 8 11 15 22 19 18 17 18 17 17 16 13 14 19 24 20 18 19 19 18 20 25 28 33 33 28 27 27 27 28 26 24 20 19
3 10 9 8 5 10 11 13 15 11 9 11 14 27 18 19 21 19 21 19 18 16 13 12 17 18 18 21 21 19 21 26 29 30 26 28 30 26 30 29 25 23 20 19
6 4 5 8 5 12 10 13 12 17 9 14 17 24 16 16 21 20 21 21 20 20 18 16 13 18 21 21 24 22 24 27 30 33 33 31 28 29 26 26 25 21 20 19
6 8 4 4 8 10 16 6 10 11 6 7 2 10 7 7 14 13 12 14 18 20 19 18 15 15 22 28 25 22 24 30 32 35 37 44 31 27 22 32 28 24 20 18
4 5 5 12 12 9 7 5 6 8 8 11 14 7 7 1 5 8 10 14 15 16 17 19 16 22 26 27 28 26 26 29 33 36 39 38 27 23 32 31 29 24 22 17
7 3 5 8 7 14 1 3 4 3 5 9 11 11 20 7 8 5 9 11 11 13 14 17 18 20 18 26 25 26 29 30 33 36 35 36 39 36 36 34 31 26 23 19
3 15 6 4 5 3 12 2 3 4 6 7 5 11 19 9 16 15 13 13 13 12 12 11 10 11 16 24 27 27 29 29 32 35 34 34 37 39 43 39 35 30 25 20
4 4 11 9 13 6 14 11 5 5 5 3 2 9 8 14 15 14 13 16 16 11 10 12 14 12 20 25 29 27 29 29 31 30 30 31 34 34 35 35 33 27 24 20
3 4 2 7 3 11 5 10 10 9 12 9 9 12 10 13 9 3 7 10 13 12 10 12 12 16 20 23 28 32 31 30 31 32 33 31 32 34 35 32 28 25 22 19
1 5 3 1 5 9 9 1 4 5 5 9 6 6 10 5 5 3 9 14 13 10 10 10 11 13 19 20 22 27 31 33 32 31 30 30 32 35 33 29 27 23 20 17
4 4 3 4 9 10 8 7 7 3 4 5 7 8 7 6 6 3 9 13 13 14 11 11 11 14 18 20 23 26 32 35 32 33 34 36 36 33 30 27 24 21 18 15
7 3 5 11 10 15 19 19 17 7 11 5 4 18 4 6 4 5 9 12 10 11 6 6 10 14 20 21 21 24 29 32 33 35 38 38 35 32 29 25 22 19 17 13
8 4 5 6 2 6 10 18 19 12 4 13 6 11 4 2 5 6 7 10 8 7 4 6 9 11 15 22 22 24 27 32 35 37 39 37 34 31 27 24 20 17 15 13
10 4 7 9 15 9 8 14 19 18 7 17 19 21 15 15 13 11 6 9 7 4 1 5 9 11 15 19 24 24 27 34 36 36 36 35 32 29 26 22 19 16 13 11
9 7 10 19 26 23 24 25 17 20 24 11 19 21 16 13 12 2 3 9 9 6 5 6 9 11 15 19 22 25 30 35 36 36 34 32 29 27 24 21 18 15 11 9
5 5 4 21 21 22 19 16 15 20 21 23 23 26 12 6 5 2 6 11 13 9 8 8 10 13 14 20 22 25 29 33 36 34 32 30 28 25 22 19 16 13 10 7
4 3 3 13 10 17 5 5 9 11 16 14 17 17 2 5 10 12 10 13 16 12 11 12 13 13 16 21 26 27 30 35 34 33 30 28 26 24 20 17 14 11 8 5
6 2 3 8 9 4 3 2 8 15 14 17 18 13 6 7 8 15 16 16 10 10 12 12 11 14 19 23 26 31 32 32 32 30 29 26 24 22 19 15 12 9 6 4
13 6 4 4 7 8 1 6 1 4 6 18 18 17 16 10 5 7 5 5 6 10 11 12 19 20 23 25 30 32 29 30 30 28 27 25 23 21 17 13 10 7 5 3
5 11 3 3 4 4 3 4 2 5 3 5 12 12 7 5 2 2 8 5 7 11 16 19 23 24 24 24 31 31 26 26 24 27 25 22 20 18 15 12 8 6 4 4
4 3 8 7 4 7 5 5 2 2 4 5 3 6 6 3 2 2 2 6 8 10 18 22 22 22 23 28 32 26 24 21 27 26 24 21 17 15 12 10 6 4 3 5
6 5 4 2 3 6 2 2 2 3 5 2 2 2 5 7 8 6 6 7 10 11 15 19 22 21 22 28 32 24 23 27 28 26 24 20 16 13 10 7 5 3 5 7
2 5 3 6 5 4 3 5 2 1 4 5 3 1 9 9 5 7 8 10 10 11 14 18 23 24 22 24 31 29 28 30 28 25 22 18 15 11 8 5 4 4 7 8
3 3 2 3 4 5 5 2 1 4 2 4 1 3 4 9 8 9 10 9 11 13 15 19 23 22 21 26 29 33 31 28 26 23 19 16 12 9 6 4 4 6 7 8
3 3 3 5 7 6 8 3 4 3 4 7 7 6 10 13 9 10 11 11 11 14 16 18 21 23 23 30 31 30 28 25 23 20 17 13 9 6 4 4 5 7 8 9
5 6 4 5 3 3 3 2 3 4 3 6 9 12 11 12 13 13 11 12 15 16 19 21 23 27 25 31 29 25 22 20 21 18 13 10 7 4 4 4 6 6 8 9
Wind_Direction
155 209 210 202 202 219 136 259 262 272 299 313 273 278 275 275 267 269 268 270 267 257 254 262 265 264 261 244 231 225 211 204 193 185 175 171 169 173 172 171 168 166 163 157
141 232 232 242 222 240 248 262 270 288 278 278 293 282 276 265 258 251 255 251 249 254 248 251 254 252 241 239 222 208 203 197 192 179 171 171 164 160 160 159 158 158 159 148
189 175 193 193 212 239 237 241 261 271 295 281 280 280 266 253 254 250 250 254 251 245 242 241 238 226 229 220 215 202 196 191 187 183 173 160 156 149 146 149 149 151 151 146
240 232 191 174 221 209 255 209 246 258 272 273 130 292 256 265 270 265 240 245 242 241 237 237 229 216 215 219 210 202 194 190 188 185 173 165 159 154 162 158 154 151 149 144
218 186 175 222 235 178 236 192 209 225 240 279 242 266 280 330 280 268 255 242 238 238 231 230 226 214 214 209 198 194 190 189 186 181 177 163 153 159 160 155 149 146 143 141
218 181 171 196 214 199 113 286 274 243 229 245 234 205 277 263 240 258 259 259 245 244 235 235 229 217 200 196 187 187 186 186 184 182 173 169 166 159 154 153 151 149 145 141
248 235 195 175 202 186 182 202 229 231 215 249 199 191 244 298 294 273 272 266 258 242 240 228 197 187 180 175 179 180 182 182 184 182 175 172 171 167 165 161 159 152 145 141
221 303 192 186 214 189 190 197 218 231 214 250 215 235 245 227 252 268 287 288 286 254 235 216 201 190 187 175 173 171 174 174 179 174 171 174 171 164 162 164 159 152 147 143
195 263 14 199 204 217 176 215 232 268 265 268 239 262 293 259 257 300 307 311 294 263 227 222 202 185 180 176 172 170 165 166 169 174 175 170 173 172 162 155 152 147 143 139
173 275 205 257 186 239 231 190 180 197 248 243 247 248 235 277 263 312 341 343 334 302 239 206 195 181 175 173 162 159 163 160 167 173 171 168 166 160 152 150 148 145 140 139
142 187 229 139 206 212 197 222 213 249 217 252 272 257 211 218 152 9 342 347 339 326 273 211 187 165 154 150 150 148 153 158 158 164 161 157 152 150 149 148 144 142 139 139
185 222 249 229 217 204 219 223 216 229 217 214 236 260 157 147 165 55 3 346 353 343 297 171 149 143 141 139 140 141 142 146 153 155 153 149 147 147 146 144 142 142 139 137
166 214 295 292 8 230 229 224 220 234 242 228 231 257 228 201 18 31 357 349 6 2 39 105 129 141 141 141 137 137 137 140 147 149 148 146 145 145 144 143 142 142 139 134
172 210 218 252 265 255 247 233 224 221 235 246 234 262 267 295 301 325 358 358 357 329 258 141 133 133 131 134 133 132 129 140 145 146 145 145 146 145 143 141 141 140 135 127
178 252 238 252 261 271 267 267 237 214 230 229 254 248 262 253 261 277 326 318 336 254 201 168 142 134 129 128 128 130 132 141 147 145 145 145 143 142 140 140 140 135 128 118
202 264 267 274 270 268 269 274 235 220 228 239 254 264 265 276 185 202 333 324 289 258 194 161 145 142 138 137 135 133 134 140 148 146 144 145 143 141 140 138 135 130 121 112
208 239 277 286 319 301 261 262 209 215 219 225 238 247 268 292 281 300 294 256 262 232 172 161 156 149 143 141 139 136 139 147 147 145 145 146 143 139 138 137 133 126 120 107
240 207 249 288 308 295 288 316 259 216 232 225 249 246 240 260 299 271 266 263 254 168 153 146 140 135 133 133 132 138 142 144 144 143 146 146 144 138 138 136 132 127 114 84
214 226 280 282 316 278 138 330 42 177 270 232 230 243 238 243 234 285 331 303 157 149 145 139 138 136 136 135 138 137 136 141 144 145 147 147 145 139 138 135 132 122 95 49
172 212 219 324 285 292 279 315 283 128 313 330 216 234 217 160 297 294 330 351 97 116 130 131 132 132 132 137 140 133 134 140 141 147 145 143 141 138 139 135 124 102 66 5
160 181 230 249 278 281 271 305 294 23 290 350 283 219 140 182 94 122 351 46 67 100 115 120 125 132 138 140 139 130 136 135 145 141 137 136 138 137 132 123 110 89 26 5
178 162 203 190 257 291 188 351 74 251 298 272 298 235 144 113 119 108 85 73 90 95 103 115 116 119 131 139 138 127 125 140 139 137 135 135 134 128 123 117 104 55 17 1
239 191 198 183 224 261 256 238 296 244 255 305 335 101 139 138 127 132 114 96 91 99 99 110 116 112 117 132 138 123 135 142 139 137 134 131 128 126 121 106 78 29 8 359
243 180 215 358 290 256 274 263 29 3 359 326 6 122 96 117 114 107 100 95 88 83 96 112 113 108 101 125 132 135 142 142 141 134 132 132 130 124 108 75 44 15 0 353
211 150 207 261 284 293 294 263 102 57 49 70 58 80 108 112 96 107 94 89 91 96 101 109 110 105 105 125 131 138 142 143 135 133 134 131 126 115 94 46 24 6 0 351
189 199 174 230 236 167 280 46 100 97 84 87 98 88 78 100 102 97 90 92 99 102 107 101 98 104 114 125 130 135 141 144 138 133 132 128 120 97 49 23 6 10 358 344